[[{"header":{"parameterUnit":"m.s-1","parameterCategory":1,"la1":30.2991,"la2":30.254,"lo1":-89.0895,"lo2":-89.0444,"dy":0.0017,"dx":0.0017,"nx":28,"ny":28,"refTime":"2023-08-12T09:00:00:Z","depth":0,"parameterNumber":2,"parameterNumberName":"U-component_of_WINDS"},"data":[0,0,0,0,0,0,0,0,0,0,0,0,0,0,0,0,0,0,0,0,0,0,0,0,0,0,0,0,0,0,0,0,0,0,0,0,0,0,0,0,0,0,0,0,0,0,0,0,0,0,0,0,0,0,0,0,0,0,4.7904,4.7905,0,4.7996,4.7997,4.7998,4.7916,4.7912,4.7909,4.7906,4.7999,4.8005,4.801,0,0,0,0,0,0,0,0,0,0,0,0,0,4.7654,4.766,4.7903,4.7905,4.7906,4.7995,4.7997,4.7998,4.7916,4.7912,4.7908,4.7904,4.7997,4.8004,4.8011,0,0,0,0,0,0,0,0,0,0,0,0,0,4.7756,4.7661,4.7903,4.7876,4.7874,4.7995,4.7997,4.7998,4.7917,4.7912,4.7907,4.7902,4.7995,4.8003,4.8012,4.8164,0,0,4.8037,4.8041,0,0,0,0,0,0,0,0,4.7751,4.7765,4.7879,4.7878,4.7876,4.7939,4.7943,4.8054,4.7918,4.7901,4.7906,4.79,4.7983,4.7992,4.802,4.8168,4.8172,4.8038,4.8043,4.8047,4.8049,0,0,0,0,0,0,0,4.7744,4.7761,4.794,4.788,4.7879,4.7858,4.7867,4.7964,4.7969,4.7902,4.7896,4.7908,4.7982,4.8013,4.8022,4.8174,4.8038,4.8045,4.805,4.8054,4.8448,4.8453,0,0,0,0,0,0,4.774,4.7756,4.7937,4.7943,4.78,4.7867,4.7877,4.7924,4.7968,4.797,4.7912,4.7904,4.8001,4.8012,4.8025,4.8203,4.8047,4.8055,4.8059,4.8442,4.8449,4.8455,0,0,0,0,0,0,4.7735,4.7757,4.7933,4.7848,4.7868,4.7876,4.793,4.7928,4.7959,4.7976,4.7976,4.7943,4.7997,4.8013,4.8129,4.8205,4.8058,4.8066,4.8436,4.8444,4.8452,4.8563,0,0,0,0,0,0,4.7728,4.7755,4.7814,4.785,4.7873,4.8037,4.7935,4.7934,4.7974,4.7964,4.8005,4.8007,4.7994,4.8117,4.8138,4.8214,4.8073,4.8429,4.844,4.8449,4.8553,4.8574,4.8592,0,0,0,0,0,4.7719,4.7842,4.7817,4.784,4.7947,4.8042,4.8055,4.8039,4.7981,4.8039,4.8049,4.8005,4.8195,4.813,4.8152,4.8233,4.8424,4.8437,4.8448,4.8544,4.857,4.8592,0,0,0,0,0,0,4.7815,4.7846,4.7819,4.7958,4.7998,4.8027,4.81,4.8068,4.8125,4.8113,4.809,4.81,4.8222,4.8239,4.8167,4.8381,4.83,4.8317,4.8364,4.8389,4.8409,4.8401,4.808,0,0,0,0,0,4.7853,4.7928,4.7951,4.807,4.8092,4.8093,4.8134,4.8118,4.8158,4.8174,4.8193,4.8234,4.8301,4.8347,4.8411,4.8556,4.8561,4.8622,4.8642,4.8658,4.8672,4.8747,4.8773,4.8495,4.8495,4.8494,0,0,4.793,4.7957,4.8005,4.809,4.8119,4.8196,4.8108,4.8193,4.8249,4.8187,4.8297,4.8313,4.8356,4.8486,4.8544,4.8504,4.8751,4.8673,4.8686,4.8692,4.8762,4.8788,4.8811,4.8503,4.8502,4.85,0,0,4.811,4.8139,4.824,4.8271,4.8316,4.8316,4.834,4.8376,4.8383,4.8493,4.8447,4.8514,4.8633,4.8664,4.8696,4.8887,4.8848,4.8909,4.9011,4.9084,4.9106,4.9125,4.919,4.9214,4.8923,4.8924,4.8924,0,4.8201,4.8315,4.8297,4.8385,4.8422,4.837,4.8471,4.8502,4.8566,4.8592,4.8547,4.8693,4.8719,4.8854,4.89,4.8929,4.8954,4.8903,4.9105,4.9124,4.9141,4.9203,4.9228,4.8931,4.893,4.8929,4.8928,0,4.8422,4.8502,4.8579,4.8641,4.8687,4.8782,4.8776,4.8825,4.8805,4.881,4.8921,4.895,4.9018,4.9049,4.9031,4.9182,4.9155,4.9108,4.9025,4.9175,4.9232,4.9256,4.894,4.8938,4.8936,4.8934,0,0,4.8664,4.8714,4.8742,4.8768,4.8814,4.8875,4.8966,4.9032,4.9073,4.9119,4.9193,4.9295,4.925,4.9287,4.9272,4.9336,4.9481,4.928,4.9281,4.9314,4.9645,4.9678,4.9705,4.9457,4.9461,4.9465,4.964,0,4.8843,4.9002,4.8987,4.9137,4.9209,4.916,4.9239,4.9275,4.9281,4.9342,4.9349,4.942,4.9358,4.9379,4.9441,4.9451,4.9547,4.9438,4.9523,4.9526,4.951,4.9736,4.9771,4.9935,4.9663,4.9667,4.9669,0,4.9073,4.9125,4.9282,4.9314,4.9344,4.9416,4.9473,4.9533,4.9572,4.9572,4.9612,4.9586,4.9676,4.9594,4.9716,4.9643,4.9677,4.9687,4.9692,4.9697,4.9605,4.9743,4.9988,5.0011,4.9705,4.9702,4.97,0,4.9229,4.934,4.9447,4.9471,4.9513,4.9563,4.9583,4.9617,4.9657,4.9708,4.9732,4.9794,4.9826,4.9874,4.9864,4.9805,4.9988,4.9906,4.9988,4.9988,5.0026,5.0023,5.0276,5.0054,5.0054,5.0053,5.0053,0,4.9428,4.9525,4.9517,4.9583,4.9689,4.9672,4.9777,4.9791,4.9821,4.9887,4.985,4.9913,4.9897,4.9959,4.9953,5.0053,5.0069,5.007,5.0066,5.0071,5.0071,5.0091,5.0078,5.006,5.0058,5.0057,5.0056,0,4.9619,4.9619,4.9731,4.9761,4.9771,4.9848,4.9872,4.9933,4.9937,5.0021,5.004,5.0045,5.0116,5.0111,5.0192,5.0187,5.031,5.0295,5.0296,5.0292,5.0373,5.0364,5.0645,5.0679,5.0439,5.0441,5.0443,0,4.9745,4.9818,4.9855,4.9897,4.9919,4.9988,5.0027,5.0013,5.0056,5.0105,5.016,5.0227,5.028,5.0395,5.0405,5.0466,5.045,5.0544,5.0458,5.046,5.0447,5.0441,5.0447,5.056,5.0562,5.0565,5.0567,0,4.9967,4.9962,5.0021,5.0081,5.0129,5.0175,5.0217,5.0253,5.0242,5.0292,5.0364,5.0405,5.0486,5.0553,5.061,5.0629,5.0595,5.0594,5.0615,5.0619,5.0616,5.0615,5.0338,5.0587,5.0585,5.0583,5.0582,5.0581,5.0126,5.0188,5.0223,5.029,5.0319,5.0359,5.0417,5.0427,5.0487,5.0551,5.054,5.0619,5.0655,5.0728,5.0753,5.0814,5.078,5.0812,5.082,5.0827,5.0835,5.0609,5.0825,5.0824,5.0824,5.0823,5.0823,0,5.0343,5.0363,5.0425,5.0483,5.0535,5.0501,5.0544,5.059,5.066,5.0696,5.0749,5.083,5.0894,5.0909,5.097,5.1016,5.1002,5.1032,5.1027,5.1031,5.0863,5.0837,5.1042,5.1042,5.1042,5.1042,5.1042,5.1042,5.0461,5.0563,5.0562,5.0677,5.0696,5.0774,5.0802,5.0837,5.0865,5.0957,5.101,5.102,5.1047,5.1109,5.1166,5.1168,5.1191,5.1227,5.1223,5.1066,5.1043,5.1022,5.0997,5.1233,5.1233,5.1385,5.1387,5.1388]},{"header":{"parameterUnit":"m.s-1","parameterCategory":1,"la1":30.2991,"la2":30.254,"lo1":-89.0895,"lo2":-89.0444,"dy":0.0017,"dx":0.0017,"nx":28,"ny":28,"refTime":"2023-08-12T09:00:00:Z","depth":0,"parameterNumber":3,"parameterNumberName":"V-component_of_WINDS"},"data":[0,0,0,0,0,0,0,0,0,0,0,0,0,0,0,0,0,0,0,0,0,0,0,0,0,0,0,0,0,0,0,0,0,0,0,0,0,0,0,0,0,0,0,0,0,0,0,0,0,0,0,0,0,0,0,0,0,0,3.0253,3.0254,0,3.0283,3.0283,3.0284,3.0247,3.0245,3.0244,3.0243,3.0271,3.0273,3.0275,0,0,0,0,0,0,0,0,0,0,0,0,0,3.0161,3.0163,3.0253,3.0254,3.0254,3.0283,3.0283,3.0284,3.0247,3.0245,3.0244,3.0242,3.027,3.0273,3.0275,0,0,0,0,0,0,0,0,0,0,0,0,0,3.0197,3.0163,3.0253,3.0239,3.0238,3.0283,3.0283,3.0284,3.0247,3.0245,3.0243,3.0241,3.027,3.0273,3.0276,3.0335,0,0,3.0285,3.0286,0,0,0,0,0,0,0,0,3.0195,3.02,3.0241,3.024,3.0239,3.0259,3.0261,3.0301,3.0248,3.0244,3.0243,3.024,3.0269,3.0272,3.0282,3.0336,3.0338,3.0285,3.0287,3.0288,3.0289,0,0,0,0,0,0,0,3.0192,3.0199,3.0265,3.0241,3.024,3.023,3.0233,3.0269,3.0267,3.0244,3.0241,3.0245,3.0268,3.0279,3.0282,3.0338,3.0285,3.0288,3.029,3.0291,3.0441,3.0443,0,0,0,0,0,0,3.0192,3.0197,3.0264,3.0266,3.0212,3.0234,3.0237,3.0255,3.0267,3.0267,3.0247,3.0244,3.0275,3.0279,3.0283,3.0352,3.0288,3.0291,3.0293,3.0439,3.0442,3.0444,0,0,0,0,0,0,3.019,3.0198,3.0263,3.0231,3.0238,3.0237,3.0258,3.0256,3.0267,3.0269,3.0268,3.0259,3.0273,3.0279,3.0322,3.0353,3.0292,3.0295,3.0436,3.044,3.0443,3.0492,0,0,0,0,0,0,3.0188,3.0198,3.0221,3.0232,3.024,3.0303,3.026,3.0258,3.0273,3.0269,3.028,3.028,3.0272,3.0318,3.0325,3.0356,3.0298,3.0434,3.0438,3.0442,3.0487,3.0496,3.0504,0,0,0,0,0,3.0185,3.0234,3.0223,3.0231,3.0269,3.0304,3.0309,3.03,3.0276,3.0298,3.0299,3.028,3.0348,3.0323,3.0331,3.0362,3.0432,3.0437,3.0442,3.0484,3.0495,3.0504,0,0,0,0,0,0,3.0226,3.0235,3.0223,3.0277,3.029,3.0298,3.0327,3.0312,3.0332,3.0327,3.0313,3.0316,3.0362,3.0367,3.0338,3.042,3.0386,3.0393,3.0415,3.0426,3.0434,3.0431,3.03,0,0,0,0,0,3.0242,3.0271,3.0276,3.0323,3.0331,3.0328,3.0343,3.0334,3.0347,3.0353,3.0357,3.0369,3.0394,3.041,3.0432,3.0488,3.0489,3.0514,3.0522,3.0529,3.0535,3.0563,3.0573,3.046,3.046,3.046,0,0,3.0275,3.0283,3.0302,3.0332,3.0341,3.037,3.0333,3.0365,3.0386,3.0357,3.0398,3.0402,3.0415,3.0465,3.0487,3.047,3.0566,3.0535,3.054,3.0542,3.0569,3.058,3.0589,3.0463,3.0463,3.0462,0,0,3.0348,3.0358,3.0398,3.0408,3.0423,3.042,3.043,3.044,3.0441,3.0483,3.0461,3.0485,3.0528,3.0538,3.0548,3.0625,3.0607,3.0632,3.0675,3.0703,3.0712,3.072,3.0746,3.0756,3.0638,3.0638,3.0639,0,3.0386,3.043,3.042,3.0454,3.0467,3.0443,3.0482,3.0492,3.0513,3.0523,3.0504,3.0556,3.0563,3.0614,3.0632,3.0642,3.0652,3.0631,3.0712,3.0719,3.0727,3.0751,3.0761,3.0641,3.0641,3.0641,3.064,0,3.0475,3.0506,3.0536,3.0558,3.0574,3.0611,3.0605,3.0623,3.0613,3.0612,3.0654,3.0662,3.0685,3.0696,3.0687,3.0746,3.0735,3.0714,3.0679,3.0741,3.0763,3.0773,3.0646,3.0645,3.0644,3.0643,0,0,3.0576,3.0592,3.0603,3.0612,3.0626,3.0649,3.0683,3.0707,3.0722,3.0737,3.0765,3.0801,3.0782,3.0794,3.0785,3.081,3.0868,3.0786,3.0786,3.08,3.0932,3.0947,3.0958,3.0857,3.0858,3.086,3.093,0,3.0649,3.071,3.0702,3.076,3.0787,3.0764,3.0794,3.0805,3.0805,3.0827,3.0827,3.0853,3.0826,3.0833,3.0856,3.0856,3.0894,3.0851,3.0881,3.0882,3.0878,3.097,3.0986,3.1053,3.094,3.0941,3.0942,0,3.0742,3.0761,3.0823,3.0832,3.0843,3.087,3.089,3.0912,3.0924,3.0922,3.0935,3.0922,3.0955,3.0921,3.0966,3.0936,3.0948,3.095,3.0952,3.0954,3.0915,3.0973,3.1074,3.1083,3.0956,3.0955,3.0954,0,3.0808,3.0849,3.0891,3.0899,3.0911,3.0931,3.0936,3.0946,3.096,3.0978,3.0986,3.1007,3.1018,3.1034,3.1026,3.1002,3.1072,3.1037,3.107,3.1071,3.1086,3.1085,3.1188,3.1095,3.1095,3.1095,3.1095,0,3.089,3.0928,3.092,3.0946,3.0987,3.0976,3.1017,3.102,3.1029,3.1054,3.1035,3.1058,3.1047,3.1069,3.1063,3.11,3.1106,3.1104,3.1102,3.1106,3.1106,3.1113,3.1107,3.1097,3.1097,3.1096,3.1096,0,3.0971,3.0967,3.1011,3.1018,3.1021,3.1051,3.1057,3.108,3.1079,3.111,3.1117,3.1114,3.1139,3.1133,3.116,3.1156,3.1203,3.1196,3.1199,3.1197,3.123,3.1227,3.1341,3.1355,3.1254,3.1255,3.1256,0,3.1023,3.1051,3.1062,3.1077,3.1085,3.111,3.1124,3.1115,3.113,3.1145,3.1166,3.119,3.1208,3.1249,3.1249,3.1269,3.1261,3.13,3.1264,3.1267,3.1261,3.1259,3.1261,3.1307,3.1308,3.1309,3.131,0,3.1115,3.1111,3.1133,3.1154,3.1172,3.1188,3.1202,3.1215,3.1207,3.1225,3.125,3.1265,3.1293,3.1316,3.1334,3.1339,3.1323,3.1321,3.133,3.1333,3.1334,3.1333,3.1218,3.1318,3.1317,3.1317,3.1316,3.1316,3.1181,3.1205,3.1217,3.1241,3.1251,3.1264,3.1286,3.1287,3.1309,3.1331,3.1324,3.1353,3.1363,3.1386,3.1393,3.1415,3.14,3.1413,3.1416,3.1419,3.1423,3.1331,3.1419,3.1418,3.1418,3.1418,3.1418,0,3.1271,3.1277,3.13,3.1321,3.134,3.1324,3.1338,3.1355,3.1381,3.1392,3.141,3.1439,3.1461,3.1463,3.1483,3.15,3.1493,3.1506,3.1504,3.1505,3.1435,3.1425,3.1511,3.1511,3.1511,3.1511,3.1511,3.1511,3.132,3.136,3.1358,3.1401,3.1406,3.1435,3.1445,3.1457,3.1465,3.1499,3.1517,3.1518,3.1525,3.1546,3.1565,3.1565,3.1573,3.1588,3.1585,3.152,3.151,3.1501,3.1492,3.159,3.1591,3.1653,3.1654,3.1654]}]]